Dewpoint
56 57 56 55 53 52 51 49 49 49 49 49 48 50 49 47 46 44 46 49 46 47 46 45 45 46 44 37 35 44 44 48 49 49 46 46 45 45 40 39 46 43 42 47 48 47 46
58 58 58 56 54 52 51 50 49 50 50 49 48 50 48 46 46 45 45 48 48 46 48 44 45 45 41 34 37 38 39 41 45 47 45 46 46 44 39 39 42 42 45 44 48 46 47
60 60 59 58 56 54 52 51 49 49 50 49 47 47 48 47 46 45 44 47 48 47 47 44 46 41 35 34 36 36 38 39 44 46 44 45 47 47 40 35 42 42 39 43 43 44 42
61 61 61 60 58 55 53 52 49 49 50 49 48 47 47 47 46 46 43 47 47 48 47 44 46 40 33 36 38 37 38 38 41 46 47 46 48 47 45 37 40 38 39 36 43 46 44
61 61 61 61 59 55 54 52 50 49 49 49 46 47 47 46 46 46 43 46 46 48 47 44 42 37 30 39 37 41 40 38 40 43 46 45 48 45 40 36 36 38 31 33 39 41 40
61 61 61 61 60 55 54 53 50 48 48 47 46 47 46 46 45 46 43 46 46 46 45 38 34 32 33 32 41 41 42 40 41 42 43 41 43 39 37 33 30 34 33 34 35 38 37
61 61 61 61 59 55 54 53 49 47 48 45 48 47 46 46 45 44 44 44 41 38 35 29 27 27 27 38 43 40 42 41 43 41 33 37 35 33 33 34 31 31 31 31 33 39 35
61 61 61 61 57 54 53 51 48 47 46 47 46 46 46 44 44 42 45 40 37 38 31 31 31 30 30 37 37 39 41 37 38 34 36 33 32 36 37 33 27 25 26 31 34 38 37
61 61 61 61 57 55 53 49 47 46 46 46 46 46 45 44 43 42 41 37 41 39 35 32 31 33 34 39 38 39 41 38 37 34 34 33 36 39 35 29 30 27 22 33 34 38 38
61 61 61 60 56 55 51 48 46 46 46 46 45 44 44 45 41 42 38 38 41 40 32 30 31 34 35 36 37 40 42 39 39 34 35 35 37 37 36 31 27 23 23 31 35 35 31
60 60 61 59 56 54 51 48 46 45 45 45 45 44 45 45 42 38 41 41 40 40 21 29 30 34 36 34 35 38 43 41 34 33 31 34 36 36 35 28 27 27 29 33 35 31 28
59 60 60 59 56 52 50 47 46 45 44 44 45 46 47 42 43 42 42 41 40 29 19 27 29 28 30 31 34 39 40 43 37 35 37 37 41 40 37 30 30 29 28 27 26 25 22
56 60 60 57 55 52 50 47 45 45 44 44 46 46 44 43 41 42 41 39 30 23 31 26 24 27 30 31 33 37 36 35 31 28 30 34 36 39 39 31 32 27 26 24 23 22 21
55 59 59 57 54 52 50 47 44 44 44 45 46 45 44 43 43 42 41 36 25 25 29 27 26 27 28 31 32 35 34 31 32 28 32 30 27 37 38 31 30 27 26 22 16 18 20
54 56 59 56 54 52 49 46 45 44 45 45 46 45 42 44 43 44 40 30 29 29 26 24 26 26 27 28 28 33 34 30 31 33 29 30 30 39 37 34 32 29 26 25 24 20 20
53 56 58 55 54 51 48 46 45 45 45 46 44 43 41 44 45 43 37 32 30 35 33 24 24 24 24 25 26 30 33 33 33 35 35 31 29 36 36 36 32 31 27 23 24 14 11
51 53 57 55 53 51 49 46 46 46 45 46 44 40 44 45 45 41 32 31 33 36 32 31 31 25 23 22 24 24 32 31 34 35 34 32 31 33 35 34 30 29 29 28 26 24 22
50 52 57 54 52 50 49 46 46 46 44 46 42 37 44 45 38 37 32 33 35 35 37 36 36 32 25 22 23 26 31 32 34 34 31 33 30 30 32 37 35 33 29 26 24 22 22
49 51 56 53 51 50 48 46 46 45 46 43 39 38 44 43 33 31 34 33 33 33 34 36 33 33 33 24 25 28 31 34 35 35 33 31 30 26 27 30 32 31 30 29 28 27 25
48 48 54 52 50 49 47 46 46 45 47 46 38 33 38 41 39 36 31 30 31 34 32 31 33 34 31 27 31 29 32 34 35 35 34 33 29 28 24 26 28 27 28 28 28 26 24
45 50 53 51 50 49 47 46 46 44 47 45 39 34 35 32 34 34 35 30 29 30 32 31 29 29 28 28 28 27 31 33 36 34 34 33 29 27 27 29 31 30 27 27 27 28 25
44 50 52 51 50 48 47 46 46 44 45 42 35 34 36 33 33 33 33 31 29 33 34 29 29 29 28 29 31 28 31 31 31 34 32 33 29 29 27 26 28 27 28 28 28 29 28
44 46 52 51 49 47 47 46 45 43 44 39 36 36 35 33 33 32 32 31 32 34 35 35 32 32 33 35 33 33 32 33 33 32 31 32 29 28 24 23 23 21 23 26 27 28 27
43 50 51 50 48 48 46 45 43 45 45 35 34 35 33 29 31 30 31 32 34 34 33 33 33 33 35 35 35 31 31 31 31 33 33 32 31 29 25 23 16 20 24 23 23 25 27
44 45 51 49 48 47 46 43 42 46 46 35 37 36 32 29 30 29 32 33 35 35 33 32 32 33 36 35 30 28 28 28 28 29 28 30 31 27 25 21 20 24 25 25 26 28 29
43 44 50 49 48 47 45 42 42 45 46 36 35 34 33 29 27 30 32 33 34 32 32 30 31 36 38 34 30 27 24 24 25 28 29 28 27 25 21 18 15 24 27 29 28 26 26
44 50 50 48 47 46 43 41 41 42 42 36 34 36 32 27 28 28 30 32 33 32 31 29 30 34 36 33 29 25 25 26 25 25 26 26 26 24 24 22 23 24 27 29 24 24 27
43 50 49 48 47 46 43 41 41 40 39 37 35 36 32 28 29 29 29 27 28 27 29 28 30 31 33 31 30 28 26 25 25 27 25 26 23 24 25 25 20 25 28 26 26 27 27
43 46 49 48 47 46 43 41 41 40 39 36 32 33 34 31 30 29 29 30 30 29 29 32 31 32 33 31 30 29 27 27 25 23 27 24 27 26 25 26 26 25 24 27 29 30 30
Wind_Speed
19 20 17 15 13 13 12 12 14 15 16 17 18 16 12 12 12 15 16 15 11 14 9 12 13 14 9 6 4 5 0 4 1 5 7 9 13 16 20 20 9 7 7 12 9 14 8
22 21 20 17 15 14 14 13 15 16 16 15 18 14 12 13 12 14 14 14 11 12 10 11 12 13 8 7 1 2 2 4 3 9 10 7 7 13 14 20 14 9 2 1 11 16 9
24 24 23 21 17 15 12 14 12 15 14 15 15 15 13 14 13 12 13 14 13 12 11 11 12 10 10 8 6 3 2 2 5 7 11 4 12 6 7 14 20 8 8 8 13 14 6
25 25 26 24 19 13 12 16 13 15 14 16 14 15 14 14 13 11 13 14 14 13 11 11 11 11 7 4 6 6 6 3 3 4 5 8 10 12 5 12 13 8 2 4 9 14 10
25 24 26 25 19 14 12 13 16 14 14 14 14 14 12 13 13 12 14 14 14 13 11 11 9 8 5 5 2 8 7 8 3 6 4 6 12 7 11 18 11 10 11 12 14 19 12
23 24 24 24 19 15 13 12 14 12 13 14 14 13 11 12 12 11 14 16 13 9 11 11 10 6 6 5 3 5 7 10 7 10 6 2 8 5 9 16 24 13 11 12 7 13 21
24 22 23 26 17 14 11 13 12 10 11 14 13 11 12 11 12 11 12 8 3 3 7 4 4 6 4 7 6 5 5 7 7 11 5 2 3 15 22 20 17 19 21 26 22 19 17
24 23 21 13 18 14 11 13 9 10 11 12 11 11 10 10 11 11 6 4 6 3 2 1 4 6 4 2 2 4 3 4 3 11 12 4 7 17 28 22 22 14 19 18 18 18 15
24 23 21 15 19 15 14 11 9 8 10 10 10 8 9 10 9 7 8 5 4 5 3 1 2 6 2 4 2 2 2 3 3 10 11 5 7 4 6 15 13 18 26 20 19 15 7
26 22 20 19 20 17 14 11 8 7 7 9 8 9 9 7 4 4 4 3 2 4 0 2 1 1 2 3 3 2 4 3 3 11 14 5 8 2 7 22 15 11 14 20 22 14 7
29 24 20 23 23 19 14 12 8 6 7 8 8 9 8 4 7 3 4 2 3 3 1 4 3 2 3 3 2 3 3 4 10 11 4 3 2 2 8 12 10 6 19 10 19 14 8
33 25 20 24 22 20 16 13 8 5 6 6 7 7 2 5 4 4 0 1 3 3 3 4 3 2 3 8 3 3 2 1 6 10 13 5 2 1 5 8 5 6 13 12 8 3 3
28 26 18 26 23 18 15 13 9 6 3 2 4 6 4 4 2 3 2 3 3 3 2 0 1 1 6 6 5 6 5 3 1 6 5 4 4 4 3 8 4 7 13 5 3 2 2
30 29 24 28 25 20 17 14 11 7 3 1 2 4 2 2 2 2 3 3 2 3 3 4 2 1 3 2 3 7 4 2 5 6 5 4 4 1 2 1 5 9 8 5 4 6 6
32 30 28 28 25 22 20 16 13 9 7 6 6 2 3 4 0 2 3 1 3 3 4 6 4 2 3 3 3 4 1 2 3 7 4 5 4 4 4 4 3 5 3 4 2 3 8
31 31 30 30 28 25 21 18 14 12 9 14 5 4 4 4 2 3 4 2 2 2 3 6 1 2 3 4 5 3 2 2 3 3 3 5 6 3 4 4 2 2 9 3 2 3 3
40 42 32 31 28 24 23 20 17 14 13 14 2 3 3 4 0 4 1 3 4 4 3 2 2 1 9 4 4 3 5 4 2 4 4 1 6 5 5 1 7 2 1 1 1 2 1
32 38 32 31 29 26 22 21 19 17 17 11 4 4 4 4 1 4 3 3 1 9 3 2 1 4 4 4 4 4 6 4 6 4 4 4 5 6 4 3 3 6 6 7 4 3 1
32 27 31 33 31 28 24 23 21 20 24 7 7 4 2 2 3 7 4 5 1 8 9 8 4 3 5 4 2 5 6 3 4 3 4 0 5 6 3 3 5 4 8 5 3 3 4
41 46 34 34 33 29 26 24 23 24 30 1 7 6 4 4 4 5 8 7 5 0 5 1 10 6 4 3 3 5 8 4 4 4 4 3 4 3 3 1 10 7 11 11 4 3 7
43 47 36 35 33 30 26 25 24 23 23 5 5 7 8 8 9 11 1 9 9 4 2 4 4 1 0 4 7 5 4 6 3 2 2 5 4 3 6 6 8 2 10 15 15 15 6
40 40 38 36 34 29 27 25 24 22 19 3 6 5 4 6 12 13 6 7 9 7 3 3 2 5 2 9 5 7 8 4 1 3 1 2 2 3 2 1 1 1 5 5 15 17 18
40 40 34 35 33 30 27 25 24 23 19 7 2 0 2 9 12 13 9 8 9 8 4 8 4 11 11 6 7 9 5 6 3 3 4 0 4 2 2 2 3 5 3 13 7 3 2
39 31 33 36 34 30 27 26 23 28 21 1 5 4 5 7 12 10 9 9 10 1 7 5 7 6 1 3 4 3 7 7 7 6 3 4 3 2 1 2 3 3 2 2 4 7 8
36 33 25 31 31 30 28 25 22 28 26 1 2 2 4 11 9 10 12 11 10 8 11 8 6 3 2 4 9 7 5 4 4 4 1 3 6 3 3 7 6 4 2 1 1 4 8
37 35 30 34 30 27 25 23 21 25 23 2 2 1 4 12 2 7 11 13 13 7 6 3 3 1 1 2 2 2 3 3 6 5 1 2 3 2 3 3 3 7 5 3 2 7 6
39 20 35 33 28 25 24 20 20 23 22 6 2 2 4 8 5 7 4 3 4 3 6 5 1 2 0 2 2 1 2 3 4 4 4 3 2 6 6 4 2 2 5 2 4 2 2
34 13 31 31 28 25 23 21 21 24 19 5 5 3 3 7 7 9 6 4 3 3 4 4 4 1 2 2 1 1 1 1 1 2 2 5 3 4 5 3 5 7 0 0 3 7 11
27 33 32 29 27 26 25 23 21 21 18 7 7 5 15 12 8 12 15 11 8 7 1 2 3 4 3 3 2 2 1 0 2 2 1 2 3 2 6 2 5 6 6 8 14 12 14
Wind_Direction
280 280 277 275 276 281 289 297 302 306 313 316 324 324 327 326 321 331 319 319 307 312 316 315 316 327 322 241 285 120 60 69 131 180 241 247 220 208 202 186 172 215 220 126 147 147 242
273 275 274 267 264 263 276 291 303 303 312 315 324 327 323 322 321 327 319 314 312 306 320 305 310 319 278 287 324 73 33 328 258 199 195 271 249 228 208 185 186 178 50 131 151 127 158
272 268 268 263 256 260 272 281 291 298 306 312 322 330 320 319 318 317 318 319 315 313 315 295 302 298 288 266 288 314 306 264 330 221 205 258 319 332 229 203 183 167 202 272 203 191 139
276 272 268 260 248 248 262 279 286 297 302 308 321 324 321 322 316 315 319 319 310 311 302 284 292 291 272 86 357 331 315 217 239 168 216 293 323 303 245 148 121 129 117 253 230 174 170
279 280 277 269 239 228 246 272 280 293 304 311 320 317 324 318 322 313 320 313 299 293 274 274 270 237 286 140 17 326 290 271 204 178 183 279 320 232 237 174 148 163 185 236 258 196 196
280 282 284 278 220 220 239 264 273 294 303 310 314 317 321 316 320 313 319 302 283 295 251 250 255 272 284 355 43 307 278 271 240 170 112 19 255 156 226 182 188 164 145 198 252 215 203
282 281 285 290 201 212 228 257 269 289 301 306 314 322 317 323 324 328 326 308 229 200 239 319 328 300 334 86 151 324 28 341 183 163 134 328 5 199 210 204 185 166 160 171 216 221 193
279 280 282 266 203 210 228 249 262 285 298 305 317 318 321 325 321 319 300 268 51 343 267 220 282 269 266 315 288 342 76 62 352 136 124 130 220 203 214 196 208 203 194 180 160 186 178
273 275 276 226 199 207 224 239 252 275 294 305 313 316 321 325 328 288 240 320 352 332 257 164 315 296 329 329 70 345 114 127 207 161 152 142 141 346 250 180 193 189 211 169 160 144 152
268 265 271 209 201 210 217 228 242 268 290 302 309 311 317 326 302 240 223 116 285 327 157 329 285 13 263 293 14 55 103 172 135 175 115 51 6 15 268 187 206 180 179 148 134 137 174
265 259 266 208 199 207 209 218 230 260 289 298 308 308 305 238 312 250 47 144 286 245 297 321 335 336 288 342 182 51 102 256 103 100 84 37 98 280 238 162 222 82 113 166 149 187 125
283 257 263 208 199 200 201 209 218 240 267 302 319 311 254 158 230 293 168 249 263 247 69 306 289 322 294 41 47 23 350 240 120 70 67 70 80 279 288 75 68 97 91 71 45 24 281
297 255 240 201 200 199 200 200 200 217 254 327 348 113 172 180 347 124 212 235 260 9 225 314 256 260 72 20 31 21 29 32 122 112 78 62 3 339 281 82 101 148 122 100 94 196 223
285 260 215 205 191 188 192 201 198 194 194 152 146 120 203 27 169 134 264 235 30 95 141 195 155 236 66 126 21 50 45 358 332 99 80 110 144 275 228 61 166 187 167 141 165 176 178
303 271 212 197 192 183 190 193 191 185 168 161 164 195 199 115 306 262 268 268 77 125 166 148 173 118 118 130 138 117 162 261 61 8 83 91 75 241 253 3 10 225 310 29 3 276 131
317 278 202 190 187 181 185 190 185 178 169 167 169 193 136 153 254 292 264 63 92 151 269 168 36 296 135 154 164 163 112 248 108 33 336 133 100 310 59 355 351 305 131 168 313 142 162
327 316 193 187 183 185 179 187 181 173 174 182 219 200 101 177 355 238 277 81 107 145 314 62 21 107 140 154 157 107 121 145 111 147 307 17 116 124 118 231 172 143 132 250 49 41 323
297 318 186 180 175 182 183 183 178 171 167 160 201 170 143 188 233 237 175 150 94 147 156 115 265 330 338 124 55 63 97 88 135 157 103 80 101 120 166 283 300 297 214 214 141 239 356
306 285 196 175 173 180 183 184 178 174 169 165 160 120 147 185 188 212 147 149 271 158 177 178 156 271 330 68 81 110 87 57 57 54 26 136 117 109 105 246 199 236 216 248 296 101 189
321 311 189 171 171 180 181 183 180 178 193 104 150 149 148 202 249 264 174 162 135 82 125 134 115 164 188 111 15 136 123 149 133 93 341 308 180 70 140 7 156 192 214 211 196 153 201
321 322 167 169 169 177 180 184 184 182 193 201 202 176 173 176 220 234 237 170 148 145 143 212 142 240 152 123 114 119 107 134 128 139 287 346 119 99 73 29 51 7 213 217 199 221 239
315 302 166 171 168 176 183 183 185 183 173 237 182 165 164 167 180 204 198 202 149 121 1 147 115 137 44 78 73 156 152 160 113 176 253 61 85 85 174 118 88 245 301 234 217 215 221
316 307 175 170 165 177 183 185 185 180 165 196 125 26 221 148 172 194 185 162 132 131 42 40 63 106 94 83 37 48 66 114 57 151 190 128 125 138 151 6 313 277 253 230 222 251 281
313 307 173 168 167 180 182 183 185 179 190 260 190 162 191 175 193 181 136 136 142 53 128 71 17 96 142 196 256 189 92 98 90 67 98 150 106 96 344 346 240 127 63 59 72 65 48
307 310 190 168 172 178 181 178 183 185 197 323 167 179 218 152 139 135 146 128 125 101 91 75 54 54 231 214 147 138 149 157 84 39 99 119 158 173 196 220 138 139 109 107 177 88 50
302 282 231 172 173 177 177 174 181 186 187 186 130 333 284 125 116 156 140 164 151 132 134 93 78 89 240 260 166 172 163 131 158 146 46 327 327 269 185 281 287 116 62 349 316 193 47
300 251 174 170 167 174 169 166 168 177 175 140 135 322 65 100 20 3 118 128 4 107 103 117 95 120 11 247 264 269 133 14 155 182 174 176 216 236 260 281 357 42 313 275 192 186 32
306 205 170 163 166 169 168 155 153 162 163 136 109 327 82 89 49 51 41 66 8 354 151 136 130 194 181 211 125 8 77 89 10 123 151 175 193 203 190 220 259 348 143 350 41 17 5
269 281 166 160 165 167 172 158 153 160 160 140 103 79 68 81 96 94 75 55 38 25 42 67 69 58 73 102 94 86 132 51 348 194 350 148 81 333 23 52 100 40 33 93 39 19 358